Location: San Antonio
(29.4240°N, 98.4930°W)
Time: 02:33:22
(UTC-05:00)

Courier 1B - Visible Passes

Search period start: 15 July 2024 00:00
Search period end: 25 July 2024 00:00
Orbit: 962 x 1209 km, 28.3° (Epoch: 14 July)

Date Brightness Start Highest point End Pass type
(mag) Time Alt. Az. Time Alt. Az. Time Alt. Az.
15 Jul 8.2 21:16:25 10° W 21:22:42 42° SSW 21:28:06 13° SE visible
15 Jul 9.5 23:12:43 10° WSW 23:14:58 14° SW 23:14:58 14° SW visible
16 Jul 9.0 22:17:45 10° WSW 22:22:27 20° SSW 22:24:25 18° S visible
17 Jul 8.8 21:23:14 10° W 21:28:48 28° SSW 21:33:54 11° SSE visible
18 Jul 9.6 22:26:55 10° SW 22:28:27 11° SSW 22:29:58 10° SSW visible
19 Jul 9.5 21:30:50 10° WSW 21:34:49 16° SSW 21:38:42 10° S visible
